FENGYUN 1C DEB, 36259

Orbit data source: Space-Track

FENGYUN 1C DEB, 36259 is space debris in SSO originally from a launch on Mon, 10 May 1999 UTC launched from the Taiyaun Space Center, China (TSC). Fengyun 1C debris stems from the Chinese weather satellite Fengyun-1C, which was intentionally destroyed by a Chinese anti-satellite missile in 2007. This event dramatically increased the amount of space debris, with thousands of trackable fragments posing hazards to satellites and human spaceflight. The Fengyun 1C debris cloud has become a focal point in discussions about space sustainability and the need for international regulations to prevent the creation of new debris.

Loading next visibility...
Identifier
36259, 1999-025DWL
Orbit
SSO
Country
Flag of CNCN / PRC
Related business
Manufacturer
Unknown
Mission
Spacecraft
Bus & Motor
Unknown
Mass
Unknown
Launch date (UTC)
1999-05-10 (27 years ago)
Launch vehicle
Unknown
Launch site
Taiyaun Space Center, China (TSC)
Object type
Payload
Rocket body
Debris
Shape & HBR
Unknown shape, 0.1 m
Radar Cross Section
Small (<0.1 m²)

Expand to show TLE details & history
Last TLE update: 3 days ago

TLE from 3 days ago
0 FENGYUN 1C DEB
1 36259U 99025DWL 26255.87442830  .00007303  00000-0  14491-2 0  9990
2 36259  98.7980  41.9572 0004470 169.6654 345.2441 14.62516098761434
Epoch: 2026-09-12T20:59Z
TLE epoch observation values (Epoch: 2026-09-12T20:59:10.605Z)
Latitude
24.81731°
Longitude
-80.63204°
Altitude
685.053 km
Speed
7.518 km/s
True Right ascension
15h 04m 09s
True Declination
24° 41' 07"
Sunlit
Object was in daylight at epoch
Visualization orbit readout
Latitude
Unknown
Longitude
Unknown
Altitude
Unknown
Speed
Unknown
Apparent Right ascension
Unknown
Apparent Declination
Unknown
Sunlit
N/A
Visualization observer readout
Local Sidereal Time
03:44:27
Azimuth
Unknown
Elevation
Unknown
Doppler factor
Unknown
Orbital elements
Apogee altitude
685.324 km
Perigee altitude
679.012 km
Semi-major axis
7,060.305 km
Eccentricity
0.00045
Inclination
98.798°
RAAN
41.9572°
Arg. of periapsis
169.6654°
True anomaly
345.23105°
Mean anomaly
345.2441°
Eccentric anomaly
345.23757°
Mean motion
3.65854 °/min
Orbital period
98.4 mins
BSTAR
0.0014491
Loading maneuver chart data...
Computing Atmospheric mass density...

Documentation

Showing up to 5 results
|